Imperial, CA

6:19 PM PDT on May 23, 2017 (GMT -0700)
Imperial County

Weather History for KIPL - March, 2013

Change the Weather History Date:

Wednesday, March 6, 2013

  Actual Average Record
Temperature  
Mean Temperature 66 °F -  
Max Temperature 78 °F 75 °F 93 °F (1972)
Min Temperature 54 °F 48 °F 38 °F (1971)
Cooling Degree Days 1    
Growing Degree Days 16 (Base 50)    
Moisture  
Dew Point 38 °F    
Average Humidity 38    
Maximum Humidity 55    
Minimum Humidity 19    
Precipitation  
Precipitation 0.00 in - - ()
Sea Level Pressure  
Sea Level Pressure 29.93 in    
Wind  
Wind Speed 10 mph (WNW)    
Max Wind Speed 18 mph    
Max Gust Speed 28 mph    
Visibility 10 miles    
Events      
Averages and records for this station are not official NWS values.
T = Trace of Precipitation, MM = Missing Value Source: NWS Daily Summary

Daily Weather History Graph

Daily Weather History Graph

Search for Another Location

Airport or City:

Trip Planner

Search our weather history database for the weather conditions in past years. The results will help you decide how hot, cold, wet, or windy it might be!

Date:

Astronomy

Mar. 06, 2013 Rise Set
Actual Time 6:03 AM PST 5:43 PM PST
Civil Twilight 5:39 AM PST 6:08 PM PST
Nautical Twilight 5:10 AM PST 6:36 PM PST
Astronomical Twilight 4:41 AM PST 7:05 PM PST
Moon 2:03 AM PST (3/6) 12:43 PM PST (3/6)
Length of Visible Light 12h 29m
Length of Day
11h 40m
Waning Crescent, 29% of the Moon is Illuminated
Mar 6
Waning Crescent
Mar 11
New
Mar 19
First Quarter
Mar 27
Full
Apr 2
Last Quarter

Hourly Weather History & Observations

Time (PST) Temp. Dew Point Humidity Pressure Visibility Wind Dir Wind Speed Gust Speed Precip Events Conditions
12:53 AM 60.1 °F 39.9 °F 47% 29.93 in 10.0 mi WSW 12.7 mph - N/A   Clear
1:53 AM 59.0 °F 39.9 °F 49% 29.94 in 10.0 mi West 16.1 mph 25.3 mph N/A   Clear
2:53 AM 59.0 °F 39.9 °F 49% 29.94 in 10.0 mi West 18.4 mph 26.5 mph N/A   Clear
3:53 AM 57.0 °F 39.0 °F 51% 29.95 in 10.0 mi West 12.7 mph - N/A   Clear
4:53 AM 55.0 °F 37.9 °F 53% 29.97 in 10.0 mi NNW 4.6 mph - N/A   Clear
5:53 AM 54.0 °F 37.9 °F 55% 29.97 in 10.0 mi NW 6.9 mph - N/A   Clear
6:53 AM 55.9 °F 37.9 °F 51% 29.99 in 10.0 mi NW 5.8 mph - N/A   Clear
7:53 AM 60.1 °F 39.0 °F 46% 30.02 in 10.0 mi WNW 6.9 mph - N/A   Clear
8:53 AM 64.9 °F 37.0 °F 36% 30.01 in 10.0 mi WNW 10.4 mph - N/A   Clear
9:53 AM 66.9 °F 36.0 °F 32% 30.00 in 10.0 mi NW 8.1 mph - N/A   Clear
10:53 AM 71.1 °F 34.0 °F 26% 29.99 in 10.0 mi Variable 3.5 mph - N/A   Clear
11:53 AM 73.9 °F 33.1 °F 22% 29.96 in 10.0 mi Variable 4.6 mph - N/A   Clear
12:53 PM 75.9 °F 32.0 °F 20% 29.92 in 10.0 mi West 4.6 mph - N/A   Clear
1:53 PM 78.1 °F 32.0 °F 19% 29.88 in 10.0 mi SE 8.1 mph - N/A   Clear
2:53 PM 78.1 °F 35.1 °F 21% 29.87 in 10.0 mi East 6.9 mph - N/A   Clear
3:53 PM 78.1 °F 35.1 °F 21% 29.86 in 10.0 mi ESE 3.5 mph - N/A   Clear
4:53 PM 77.0 °F 37.0 °F 24% 29.84 in 10.0 mi SW 9.2 mph 20.7 mph N/A   Clear
5:16 PM 73.4 °F 39.2 °F 29% 29.86 in 10.0 mi NNW 11.5 mph - N/A   Clear
5:53 PM 69.1 °F 37.9 °F 32% 29.86 in 10.0 mi West 12.7 mph - N/A   Clear
6:53 PM 68.0 °F 37.9 °F 33% 29.87 in 10.0 mi West 16.1 mph - N/A   Clear
7:53 PM 66.0 °F 39.0 °F 37% 29.88 in 10.0 mi West 18.4 mph 27.6 mph N/A   Clear
8:53 PM 63.0 °F 39.9 °F 43% 29.91 in 10.0 mi West 12.7 mph - N/A   Clear
9:53 PM 59.0 °F 41.0 °F 51% 29.91 in 10.0 mi West 11.5 mph - N/A   Clear
10:53 PM 59.0 °F 41.0 °F 51% 29.91 in 10.0 mi WNW 4.6 mph - N/A   Clear
11:53 PM 63.0 °F 39.0 °F 41% 29.89 in 10.0 mi Variable 4.6 mph - N/A   Clear